Regional Weather Roundup
Issued by NWS

Home | Current Version | Previous Version | Graphics & Text | Print | Product List | Glossary On
Versions: 1 2 3 4 5 6 7 8 9 10 11 12 13 14 15 16 17 18 19 20 21 22 23 24 25 26 27 28 29 30 31 32 33 34 35 36 37 38 39 40 41 42 43 44 45 46 47 48 49 50
000
ASUS44 KMEG 222010
RWRTN
TENNESSEE HOURLY STATE WEATHER ROUNDUP
NATIONAL WEATHER SERVICE MEMPHIS TN
300 PM CDT SAT APR 22 2017

TNZ002-004-019-021-049-052-054-088>092-222100-
WEST TENNESSEE

CITY           SKY/WX    TMP DP  RH WIND       PRES   REMARKS
MEMPHIS INTL   CLOUDY    56  55  97 NW12      29.87S
NWS MEMPHIS      N/A     58 N/A N/A MISG        N/A
JACKSON        CLOUDY    58  55  90 NE12      29.86S
DYERSBURG      CLOUDY    54  50  86 NE12      29.90F
SOMERVILLE     PTSUNNY   57  57 100 VRB7      29.85S FOG
UNION CITY     CLOUDY    54  50  87 NE13G20   29.91S
BOLIVAR        PTSUNNY   57  55  94 N7        29.84F
PARIS          CLOUDY    50  48  93 NE8       29.91R
HUNTINGDON     CLOUDY    54  52  94 NE13      29.87F
LEXINGTON      PTSUNNY   55  55 100 NE9       29.84F FOG
SAVANNAH       CLOUDY    61  57  88 N12G25    29.81S
$$

TNZ008-025-027-028-033-062-065-066-222100-
NORTH MIDDLE TENNESSEE

CITY           SKY/WX    TMP DP  RH WIND       PRES   REMARKS
NASHVILLE      RAIN      56  55  97 NE13      29.87F VSB 1
PORTLAND       CLOUDY    52  50  93 NE15      29.92F
CLARKSVILLE    LGT RAIN  54  50  86 NE10      29.91F
SMYRNA         RAIN      57  55  93 N15       29.87F
COOKEVILLE     CLOUDY    63  59  88 N9G16     29.85S
CROSSVILLE     CLOUDY    68  59  73 N10       29.86F
$$

TNZ061-075-076-078-094-096-097-222100-
SOUTH MIDDLE TENNESSEE

CITY           SKY/WX    TMP DP  RH WIND       PRES   REMARKS
FAYETTEVILLE   CLOUDY    73  63  68 S12       29.82F
TULLAHOMA      CLOUDY    68  63  83 SW5       29.83F
WINCHESTER     CLOUDY    73  63  68 S7        29.83F
MCMINNVILLE    CLOUDY    66  64  94 N8        29.83S
COLUMBIA       CLOUDY   N/A N/A N/A N5        29.84F
SHELBYVILLE    CLOUDY    63  61  94 N14       29.85S
$$

TNZ017-018-042-046-047-222100-
NORTHEAST TENNESSEE

CITY           SKY/WX    TMP DP  RH WIND       PRES   REMARKS
TRI CITIES     CLOUDY    68  61  78 NW5       29.87F
ELIZABETHTON   CLOUDY    70  61  73 W7        29.87F
$$

TNZ012-013-036-069-073-074-222100-
CENTRAL EAST TENNESSEE

CITY           SKY/WX    TMP DP  RH WIND       PRES   REMARKS
KNOXVILLE      PTSUNNY   73  57  57 SW9       29.82F
OAK RIDGE      CLOUDY    71  61  70 CALM      29.85F
DOWNTOWN KNOXV CLOUDY    73  61  64 W5        29.83F
GATLINBURG     CLOUDY    73  55  53 W6        29.82F
MORRISTOWN     PTSUNNY   68  61  77 N10       29.86F
JACKSBORO      PTSUNNY   63  61  94 E5        29.89F
$$

TNZ083-085-099-222100-
SOUTHEAST TENNESSEE

CITY           SKY/WX    TMP DP  RH WIND       PRES   REMARKS
CHATTANOOGA    CLOUDY    74  61  63 CALM      29.83F
$$

SKY/WX REPORTED AS FAIR MEANS FEW OR NO CLOUDS BELOW
12 THOUSAND FEET.





USA.gov is the U.S. government's official web portal to all federal, state and local government web resources and services.